Time,TemperatureF,DewpointF,PressureIn,WindDirection,WindDirectionDegrees,WindSpeedMPH,WindSpeedGustMPH,Humidity,HourlyPrecipIn,Conditions,Clouds,dailyrainin,SoftwareType,DateUTC
2013-09-09 00:13:00,71.0,70.0,-100.00,North,4,0.0,0.0,98,0.00,,,-99.99,,2013-09-09 05:13:00,
2013-09-09 00:23:00,71.0,70.0,-100.00,North,4,0.0,0.0,98,0.00,,,-99.99,,2013-09-09 05:23:00,
2013-09-09 00:34:00,71.0,70.0,-100.00,North,4,0.0,0.0,98,0.00,,,-99.99,,2013-09-09 05:34:00,
2013-09-09 00:43:00,71.0,70.0,-100.00,North,4,0.0,0.0,98,0.00,,,-99.99,,2013-09-09 05:43:00,
2013-09-09 01:12:00,70.0,69.0,-100.00,NE,40,0.0,0.0,98,0.00,,,0.00,,2013-09-09 06:12:00,
2013-09-09 01:22:00,70.0,69.0,-100.00,NE,40,0.0,0.0,98,0.00,,,0.00,,2013-09-09 06:22:00,
2013-09-09 01:32:00,70.0,69.0,-100.00,NE,40,0.0,0.0,98,0.00,,,0.00,,2013-09-09 06:32:00,
2013-09-09 01:42:00,70.0,69.0,-100.00,NE,40,0.0,0.0,98,0.00,,,0.00,,2013-09-09 06:42:00,
2013-09-09 02:11:00,70.0,69.0,-100.00,NNE,18,0.0,0.0,98,0.00,,,0.00,,2013-09-09 07:11:00,
2013-09-09 02:22:00,70.0,69.0,-100.00,NNE,18,0.0,0.0,98,0.00,,,0.00,,2013-09-09 07:22:00,
2013-09-09 02:32:00,70.0,69.0,-100.00,NNE,18,0.0,0.0,98,0.00,,,0.00,,2013-09-09 07:32:00,
2013-09-09 02:43:00,70.0,69.0,-100.00,NNE,18,0.0,0.0,98,0.00,,,0.00,,2013-09-09 07:43:00,
2013-09-09 03:12:00,69.0,69.0,-100.00,North,11,0.0,0.0,99,0.00,,,0.00,,2013-09-09 08:12:00,
2013-09-09 03:22:00,69.0,69.0,-100.00,North,11,0.0,0.0,99,0.00,,,0.00,,2013-09-09 08:22:00,
2013-09-09 03:32:00,69.0,69.0,-100.00,North,11,0.0,0.0,99,0.00,,,0.00,,2013-09-09 08:32:00,
2013-09-09 03:42:00,69.0,69.0,-100.00,North,11,0.0,0.0,99,0.00,,,0.00,,2013-09-09 08:42:00,
2013-09-09 04:12:00,69.0,69.0,-100.00,NNE,19,0.0,0.0,99,0.00,,,0.00,,2013-09-09 09:12:00,
2013-09-09 04:22:00,69.0,69.0,-100.00,NNE,19,0.0,0.0,99,0.00,,,0.00,,2013-09-09 09:22:00,
2013-09-09 04:33:00,69.0,69.0,-100.00,NNE,19,0.0,0.0,99,0.00,,,0.00,,2013-09-09 09:33:00,
2013-09-09 04:43:00,69.0,69.0,-100.00,NNE,19,0.0,0.0,99,0.00,,,0.00,,2013-09-09 09:43:00,
2013-09-09 05:12:00,68.0,68.0,-100.00,North,8,0.0,0.0,99,0.00,,,0.00,,2013-09-09 10:12:00,
2013-09-09 05:23:00,68.0,68.0,-100.00,North,8,0.0,0.0,99,0.00,,,0.00,,2013-09-09 10:23:00,
2013-09-09 05:32:00,68.0,68.0,-100.00,North,8,0.0,0.0,99,0.00,,,0.00,,2013-09-09 10:32:00,
2013-09-09 05:42:00,68.0,68.0,-100.00,North,8,0.0,0.0,99,0.00,,,0.00,,2013-09-09 10:42:00,
2013-09-09 06:12:00,68.0,68.0,-100.00,NNE,24,0.0,0.0,99,0.00,,,0.00,,2013-09-09 11:12:00,
2013-09-09 06:22:00,68.0,68.0,-100.00,NNE,24,0.0,0.0,99,0.00,,,0.00,,2013-09-09 11:22:00,
2013-09-09 06:34:00,68.0,68.0,-100.00,NNE,24,0.0,0.0,99,0.00,,,0.00,,2013-09-09 11:34:00,
2013-09-09 06:42:00,68.0,68.0,-100.00,NNE,24,0.0,0.0,99,0.00,,,0.00,,2013-09-09 11:42:00,
2013-09-09 07:12:00,68.0,68.0,-100.00,NNE,22,0.0,0.0,99,0.00,,,0.00,,2013-09-09 12:12:00,
2013-09-09 07:22:00,68.0,68.0,-100.00,NNE,22,0.0,0.0,99,0.00,,,0.00,,2013-09-09 12:22:00,
2013-09-09 07:32:00,68.0,68.0,-100.00,NNE,22,0.0,0.0,99,0.00,,,0.00,,2013-09-09 12:32:00,
2013-09-09 07:42:00,68.0,68.0,-100.00,NNE,22,0.0,0.0,99,0.00,,,0.00,,2013-09-09 12:42:00,
2013-09-09 08:11:00,73.0,73.0,-100.00,North,358,0.0,0.0,99,0.00,,,0.00,,2013-09-09 13:11:00,
2013-09-09 08:22:00,73.0,73.0,-100.00,North,358,0.0,0.0,99,0.00,,,0.00,,2013-09-09 13:22:00,
2013-09-09 08:32:00,73.0,73.0,-100.00,North,358,0.0,0.0,99,0.00,,,0.00,,2013-09-09 13:32:00,
2013-09-09 08:42:00,73.0,73.0,-100.00,North,358,0.0,0.0,99,0.00,,,0.00,,2013-09-09 13:42:00,
2013-09-09 10:43:00,88.0,75.0,-100.00,NNE,25,2.0,6.0,65,0.00,,,0.00,,2013-09-09 15:43:00,
2013-09-09 11:13:00,89.0,73.0,-100.00,NE,40,3.0,7.0,60,0.00,,,0.00,,2013-09-09 16:13:00,
2013-09-09 11:24:00,89.0,73.0,-100.00,NE,40,3.0,7.0,60,0.00,,,0.00,,2013-09-09 16:24:00,
2013-09-09 11:34:00,89.0,73.0,-100.00,NE,40,3.0,7.0,60,0.00,,,0.00,,2013-09-09 16:34:00,
2013-09-09 11:43:00,89.0,73.0,-100.00,NE,40,3.0,7.0,60,0.00,,,0.00,,2013-09-09 16:43:00,
2013-09-09 12:12:00,93.0,74.0,-100.00,NNW,328,2.0,7.0,55,0.00,,,0.00,,2013-09-09 17:12:00,
2013-09-09 12:23:00,93.0,74.0,-100.00,NNW,328,2.0,7.0,55,0.00,,,0.00,,2013-09-09 17:23:00,
2013-09-09 12:34:00,93.0,74.0,-100.00,NNW,328,2.0,7.0,55,0.00,,,0.00,,2013-09-09 17:34:00,
2013-09-09 12:43:00,93.0,74.0,-100.00,NNW,328,2.0,7.0,55,0.00,,,0.00,,2013-09-09 17:43:00,
2013-09-09 13:13:00,91.0,70.0,-100.00,SE,134,3.0,7.0,51,0.00,,,0.00,,2013-09-09 18:13:00,
2013-09-09 13:22:00,91.0,70.0,-100.00,SE,134,3.0,7.0,51,0.00,,,0.00,,2013-09-09 18:22:00,
2013-09-09 13:32:00,91.0,70.0,-100.00,SE,134,3.0,7.0,51,0.00,,,0.00,,2013-09-09 18:32:00,
2013-09-09 13:42:00,91.0,70.0,-100.00,SE,134,3.0,7.0,51,0.00,,,0.00,,2013-09-09 18:42:00,
2013-09-09 14:12:00,93.0,69.0,-100.00,SSE,159,4.0,9.0,46,0.00,,,0.00,,2013-09-09 19:12:00,
2013-09-09 14:22:00,93.0,69.0,-100.00,SSE,159,4.0,9.0,46,0.00,,,0.00,,2013-09-09 19:22:00,
2013-09-09 14:32:00,93.0,69.0,-100.00,SSE,159,4.0,9.0,46,0.00,,,0.00,,2013-09-09 19:32:00,
2013-09-09 14:42:00,93.0,69.0,-100.00,SSE,159,4.0,9.0,46,0.00,,,0.00,,2013-09-09 19:42:00,
2013-09-09 15:12:00,95.0,70.0,-100.00,SW,230,3.0,7.0,45,0.00,,,0.00,,2013-09-09 20:12:00,
2013-09-09 15:22:00,95.0,70.0,-100.00,SW,230,3.0,7.0,45,0.00,,,0.00,,2013-09-09 20:22:00,
2013-09-09 15:32:00,95.0,70.0,-100.00,SW,230,3.0,7.0,45,0.00,,,0.00,,2013-09-09 20:32:00,
2013-09-09 15:42:00,95.0,70.0,-100.00,SW,230,3.0,7.0,45,0.00,,,0.00,,2013-09-09 20:42:00,
2013-09-09 16:12:00,93.0,73.0,-100.00,SE,139,3.0,7.0,52,0.00,,,0.00,,2013-09-09 21:12:00,
2013-09-09 16:22:00,93.0,73.0,-100.00,SE,139,3.0,7.0,52,0.00,,,0.00,,2013-09-09 21:22:00,
2013-09-09 16:34:00,93.0,73.0,-100.00,SE,139,3.0,7.0,52,0.00,,,0.00,,2013-09-09 21:34:00,
2013-09-09 16:44:00,93.0,73.0,-100.00,SE,139,3.0,7.0,52,0.00,,,0.00,,2013-09-09 21:44:00,
2013-09-09 17:13:00,93.0,70.0,-100.00,WSW,244,3.0,6.0,47,0.00,,,0.00,,2013-09-09 22:13:00,
2013-09-09 17:24:00,93.0,70.0,-100.00,WSW,244,3.0,6.0,47,0.00,,,0.00,,2013-09-09 22:24:00,
2013-09-09 17:34:00,93.0,70.0,-100.00,WSW,244,3.0,6.0,47,0.00,,,0.00,,2013-09-09 22:34:00,
2013-09-09 17:43:00,93.0,70.0,-100.00,WSW,244,3.0,6.0,47,0.00,,,0.00,,2013-09-09 22:43:00,
2013-09-09 18:12:00,90.0,71.0,-100.00,SSW,210,3.0,8.0,53,0.00,,,0.00,,2013-09-09 23:12:00,
2013-09-09 18:22:00,90.0,71.0,-100.00,SSW,210,3.0,8.0,53,0.00,,,0.00,,2013-09-09 23:22:00,
2013-09-09 18:34:00,90.0,71.0,-100.00,SSW,210,3.0,8.0,53,0.00,,,0.00,,2013-09-09 23:34:00,
2013-09-09 18:42:00,90.0,71.0,-100.00,SSW,210,3.0,8.0,53,0.00,,,0.00,,2013-09-09 23:42:00,
2013-09-09 19:12:00,85.0,70.0,-100.00,WNW,283,1.0,5.0,60,0.00,,,0.00,,2013-09-10 00:12:00,
2013-09-09 19:22:00,85.0,70.0,-100.00,WNW,283,1.0,5.0,60,0.00,,,0.00,,2013-09-10 00:22:00,
2013-09-09 19:32:00,85.0,70.0,-100.00,WNW,283,1.0,5.0,60,0.00,,,0.00,,2013-09-10 00:32:00,
2013-09-09 19:42:00,85.0,70.0,-100.00,WNW,283,1.0,5.0,60,0.00,,,0.00,,2013-09-10 00:42:00,
2013-09-09 20:11:00,77.0,72.0,-100.00,NW,308,0.0,0.0,84,0.00,,,0.00,,2013-09-10 01:11:00,
2013-09-09 20:21:00,77.0,72.0,-100.00,NW,308,0.0,0.0,84,0.00,,,0.00,,2013-09-10 01:21:00,
2013-09-09 20:32:00,77.0,72.0,-100.00,NW,308,0.0,0.0,84,0.00,,,0.00,,2013-09-10 01:32:00,
2013-09-09 20:42:00,77.0,72.0,-100.00,NW,308,0.0,0.0,84,0.00,,,0.00,,2013-09-10 01:42:00,
2013-09-09 21:12:00,74.0,72.0,-100.00,NW,316,0.0,0.0,95,0.00,,,0.00,,2013-09-10 02:12:00,
2013-09-09 21:22:00,74.0,72.0,-100.00,NW,316,0.0,0.0,95,0.00,,,0.00,,2013-09-10 02:22:00,
2013-09-09 21:32:00,74.0,72.0,-100.00,NW,316,0.0,0.0,95,0.00,,,0.00,,2013-09-10 02:32:00,
2013-09-09 21:42:00,74.0,72.0,-100.00,NW,316,0.0,0.0,95,0.00,,,0.00,,2013-09-10 02:42:00,
2013-09-09 22:12:00,72.0,71.0,-100.00,NW,318,0.0,0.0,96,0.00,,,0.00,,2013-09-10 03:12:00,
2013-09-09 22:22:00,72.0,71.0,-100.00,NW,318,0.0,0.0,96,0.00,,,0.00,,2013-09-10 03:22:00,
2013-09-09 22:35:00,72.0,71.0,-100.00,NW,318,0.0,0.0,96,0.00,,,0.00,,2013-09-10 03:35:00,
2013-09-09 22:44:00,72.0,71.0,-100.00,NW,318,0.0,0.0,96,0.00,,,0.00,,2013-09-10 03:44:00,
2013-09-09 23:13:00,71.0,70.0,-100.00,North,0,0.0,0.0,97,0.00,,,0.00,,2013-09-10 04:13:00,
2013-09-09 23:24:00,71.0,70.0,-100.00,North,0,0.0,0.0,97,0.00,,,0.00,,2013-09-10 04:24:00,
2013-09-09 23:34:00,71.0,70.0,-100.00,North,0,0.0,0.0,97,0.00,,,0.00,,2013-09-10 04:34:00,
2013-09-09 23:43:00,71.0,70.0,-100.00,North,0,0.0,0.0,97,0.00,,,0.00,,2013-09-10 04:43:00,